Time,TemperatureF,DewpointF,PressureIn,WindDirection,WindDirectionDegrees,WindSpeedMPH,WindSpeedGustMPH,Humidity,HourlyPrecipIn,Conditions,Clouds,dailyrainin,SoftwareType,DateUTC
2013-02-28 00:02:00,33.0,28.0,-100.00,NE,52,8.0,15.0,81,0.00,,,-99.99,,2013-02-28 05:02:00,
2013-02-28 00:11:00,34.0,30.0,-100.00,NNE,16,7.0,15.0,81,0.00,,,-99.99,,2013-02-28 05:11:00,
2013-02-28 00:22:00,34.0,30.0,-100.00,NNE,18,7.0,15.0,81,0.00,,,-99.99,,2013-02-28 05:22:00,
2013-02-28 00:32:00,34.0,30.0,-100.00,NE,43,5.0,15.0,82,0.00,,,-99.99,,2013-02-28 05:32:00,
2013-02-28 00:42:00,34.0,30.0,-100.00,ENE,57,5.0,15.0,82,0.00,,,-99.99,,2013-02-28 05:42:00,
2013-02-28 00:52:00,34.0,30.0,-100.00,NE,55,6.0,15.0,82,0.00,,,-99.99,,2013-02-28 05:52:00,
2013-02-28 01:01:00,34.0,30.0,-100.00,NE,43,5.0,15.0,82,0.00,,,-99.99,,2013-02-28 06:01:00,
2013-02-28 01:11:00,34.0,30.0,-100.00,NNE,33,5.0,15.0,82,0.00,,,-99.99,,2013-02-28 06:11:00,
2013-02-28 01:22:00,33.0,28.0,-100.00,North,355,6.0,15.0,82,0.00,,,-99.99,,2013-02-28 06:22:00,
2013-02-28 01:32:00,33.0,28.0,-100.00,NE,46,4.0,15.0,82,0.00,,,-99.99,,2013-02-28 06:32:00,
2013-02-28 01:42:00,34.0,30.0,-100.00,NE,53,3.0,15.0,84,0.00,,,-99.99,,2013-02-28 06:42:00,
2013-02-28 01:52:00,34.0,30.0,-100.00,ENE,63,4.0,15.0,84,0.00,,,-99.99,,2013-02-28 06:52:00,
2013-02-28 02:01:00,34.0,30.0,-100.00,North,2,3.0,15.0,84,0.00,,,-99.99,,2013-02-28 07:01:00,
2013-02-28 02:11:00,33.0,30.0,-100.00,North,4,4.0,15.0,84,0.00,,,-99.99,,2013-02-28 07:11:00,
2013-02-28 02:22:00,33.0,30.0,-100.00,North,4,4.0,15.0,84,0.00,,,-99.99,,2013-02-28 07:22:00,
2013-02-28 02:32:00,33.0,30.0,-100.00,North,4,4.0,15.0,84,0.00,,,-99.99,,2013-02-28 07:32:00,
2013-02-28 02:42:00,33.0,30.0,-100.00,North,4,4.0,15.0,84,0.00,,,-99.99,,2013-02-28 07:42:00,
2013-02-28 03:32:00,33.0,30.0,-100.00,NE,39,4.0,8.0,85,0.00,,,-99.99,,2013-02-28 08:32:00,
2013-02-28 03:42:00,33.0,30.0,-100.00,NE,49,4.0,8.0,86,0.00,,,-99.99,,2013-02-28 08:42:00,
2013-02-28 03:52:00,33.0,30.0,-100.00,NNE,22,4.0,8.0,86,0.00,,,-99.99,,2013-02-28 08:52:00,
2013-02-28 04:04:00,33.0,30.0,-100.00,NE,48,4.0,8.0,86,0.00,,,-99.99,,2013-02-28 09:04:00,
2013-02-28 04:12:00,33.0,30.0,-100.00,NE,56,3.0,8.0,88,0.00,,,-99.99,,2013-02-28 09:12:00,
2013-02-28 04:22:00,32.0,30.0,-100.00,NE,43,4.0,8.0,89,0.00,,,-99.99,,2013-02-28 09:22:00,
2013-02-28 04:32:00,33.0,30.0,-100.00,NNE,33,5.0,8.0,88,0.00,,,-99.99,,2013-02-28 09:32:00,
2013-02-28 04:42:00,32.0,30.0,-100.00,NE,48,6.0,8.0,88,0.00,,,-99.99,,2013-02-28 09:42:00,
2013-02-28 04:52:00,32.0,30.0,-100.00,NE,39,6.0,8.0,88,0.00,,,-99.99,,2013-02-28 09:52:00,
2013-02-28 05:02:00,32.0,30.0,-100.00,East,91,6.0,8.0,86,0.00,,,-99.99,,2013-02-28 10:02:00,
2013-02-28 05:12:00,32.0,28.0,-100.00,ENE,59,6.0,8.0,85,0.00,,,-99.99,,2013-02-28 10:12:00,
2013-02-28 05:22:00,32.0,28.0,-100.00,NNE,12,7.0,8.0,84,0.00,,,-99.99,,2013-02-28 10:22:00,
2013-02-28 05:32:00,33.0,30.0,-100.00,NE,38,6.0,8.0,84,0.00,,,-99.99,,2013-02-28 10:32:00,
2013-02-28 05:42:00,33.0,28.0,-100.00,ENE,62,7.0,10.0,82,0.00,,,-99.99,,2013-02-28 10:42:00,
2013-02-28 05:52:00,33.0,28.0,-100.00,NE,38,6.0,10.0,82,0.00,,,-99.99,,2013-02-28 10:52:00,
2013-02-28 06:02:00,33.0,28.0,-100.00,NNE,31,7.0,10.0,81,0.00,,,-99.99,,2013-02-28 11:02:00,
2013-02-28 06:11:00,32.0,28.0,-100.00,NE,39,6.0,10.0,81,0.00,,,-99.99,,2013-02-28 11:11:00,
2013-02-28 06:22:00,32.0,28.0,-100.00,NE,45,7.0,10.0,81,0.00,,,-99.99,,2013-02-28 11:22:00,
2013-02-28 06:32:00,33.0,28.0,-100.00,East,83,7.0,10.0,81,0.00,,,-99.99,,2013-02-28 11:32:00,
2013-02-28 06:42:00,32.0,28.0,-100.00,NE,49,6.0,10.0,80,0.00,,,-99.99,,2013-02-28 11:42:00,
2013-02-28 06:52:00,32.0,28.0,-100.00,NNE,28,6.0,10.0,81,0.00,,,-99.99,,2013-02-28 11:52:00,
2013-02-28 07:02:00,32.0,28.0,-100.00,NE,43,7.0,10.0,81,0.00,,,-99.99,,2013-02-28 12:02:00,
2013-02-28 07:12:00,32.0,28.0,-100.00,NE,55,5.0,10.0,81,0.00,,,-99.99,,2013-02-28 12:12:00,
2013-02-28 07:22:00,32.0,28.0,-100.00,NNE,26,6.0,10.0,81,0.00,,,-99.99,,2013-02-28 12:22:00,
2013-02-28 07:32:00,32.0,28.0,-100.00,ENE,59,5.0,10.0,82,0.00,,,-99.99,,2013-02-28 12:32:00,
2013-02-28 07:42:00,32.0,28.0,-100.00,ESE,117,8.0,12.0,81,0.00,,,-99.99,,2013-02-28 12:42:00,
2013-02-28 07:52:00,32.0,28.0,-100.00,NE,43,7.0,12.0,81,0.00,,,-99.99,,2013-02-28 12:52:00,
2013-02-28 08:02:00,33.0,28.0,-100.00,NE,39,7.0,12.0,82,0.00,,,-99.99,,2013-02-28 13:02:00,
2013-02-28 08:12:00,32.0,28.0,-100.00,NNE,28,6.0,12.0,82,0.00,,,-99.99,,2013-02-28 13:12:00,
2013-02-28 08:22:00,32.0,28.0,-100.00,NE,50,7.0,12.0,82,0.00,,,-99.99,,2013-02-28 13:22:00,
2013-02-28 08:32:00,32.0,28.0,-100.00,NE,48,5.0,12.0,84,0.00,,,-99.99,,2013-02-28 13:32:00,
2013-02-28 08:42:00,32.0,28.0,-100.00,ENE,73,5.0,12.0,85,0.00,,,-99.99,,2013-02-28 13:42:00,
2013-02-28 08:52:00,32.0,28.0,-100.00,NE,35,6.0,12.0,85,0.00,,,-99.99,,2013-02-28 13:52:00,
2013-02-28 09:02:00,32.0,28.0,-100.00,NNE,28,5.0,12.0,85,0.00,,,-99.99,,2013-02-28 14:02:00,
2013-02-28 09:12:00,32.0,28.0,-100.00,NNE,26,6.0,12.0,86,0.00,,,-99.99,,2013-02-28 14:12:00,
2013-02-28 09:22:00,32.0,30.0,-100.00,East,94,6.0,12.0,86,0.00,,,-99.99,,2013-02-28 14:22:00,
2013-02-28 09:32:00,32.0,30.0,-100.00,ENE,59,6.0,12.0,88,0.00,,,-99.99,,2013-02-28 14:32:00,
2013-02-28 09:42:00,32.0,28.0,-100.00,NNE,33,7.0,12.0,86,0.00,,,-99.99,,2013-02-28 14:42:00,
2013-02-28 09:52:00,32.0,30.0,-100.00,ENE,57,6.0,12.0,88,0.00,,,-99.99,,2013-02-28 14:52:00,
2013-02-28 10:02:00,32.0,30.0,-100.00,NE,36,6.0,12.0,88,0.00,,,-99.99,,2013-02-28 15:02:00,
2013-02-28 10:11:00,32.0,30.0,-100.00,NE,55,6.0,12.0,88,0.00,,,-99.99,,2013-02-28 15:11:00,
2013-02-28 10:22:00,32.0,30.0,-100.00,ENE,62,7.0,12.0,88,0.00,,,-99.99,,2013-02-28 15:22:00,
2013-02-28 10:32:00,32.0,30.0,-100.00,ENE,64,6.0,12.0,88,0.00,,,-99.99,,2013-02-28 15:32:00,
2013-02-28 10:42:00,32.0,30.0,-100.00,NNE,32,5.0,12.0,88,0.00,,,-99.99,,2013-02-28 15:42:00,
2013-02-28 10:52:00,32.0,30.0,-100.00,NNE,29,6.0,12.0,89,0.00,,,-99.99,,2013-02-28 15:52:00,
2013-02-28 11:02:00,32.0,30.0,-100.00,NE,53,7.0,12.0,89,0.00,,,-99.99,,2013-02-28 16:02:00,
2013-02-28 11:12:00,32.0,30.0,-100.00,NE,45,6.0,12.0,91,0.00,,,-99.99,,2013-02-28 16:12:00,
2013-02-28 11:22:00,32.0,32.0,-100.00,NNE,29,7.0,12.0,93,0.00,,,-99.99,,2013-02-28 16:22:00,
2013-02-28 11:32:00,33.0,32.0,-100.00,ENE,60,7.0,12.0,94,0.00,,,-99.99,,2013-02-28 16:32:00,
2013-02-28 11:42:00,32.0,32.0,-100.00,NNE,33,6.0,12.0,94,0.00,,,-99.99,,2013-02-28 16:42:00,
2013-02-28 11:52:00,32.0,32.0,-100.00,NNE,12,5.0,12.0,94,0.00,,,-99.99,,2013-02-28 16:52:00,
2013-02-28 12:02:00,33.0,32.0,-100.00,NE,49,6.0,12.0,94,0.00,,,-99.99,,2013-02-28 17:02:00,
2013-02-28 12:12:00,34.0,32.0,-100.00,NE,56,6.0,12.0,94,0.00,,,-99.99,,2013-02-28 17:12:00,
2013-02-28 12:22:00,33.0,32.0,-100.00,ENE,57,7.0,12.0,94,0.00,,,-99.99,,2013-02-28 17:22:00,
2013-02-28 12:32:00,33.0,32.0,-100.00,NE,38,7.0,12.0,93,0.00,,,-99.99,,2013-02-28 17:32:00,
2013-02-28 12:42:00,34.0,32.0,-100.00,ENE,59,6.0,12.0,93,0.00,,,-99.99,,2013-02-28 17:42:00,
2013-02-28 12:52:00,34.0,32.0,-100.00,NE,36,0.0,0.0,91,0.00,,,-99.99,,2013-02-28 17:52:00,
2013-02-28 13:22:00,35.0,32.0,-100.00,North,358,0.0,0.0,89,0.00,,,-99.99,,2013-02-28 18:22:00,
2013-02-28 14:02:00,35.0,32.0,-100.00,NE,38,0.0,0.0,86,0.00,,,-99.99,,2013-02-28 19:02:00,
2013-02-28 14:12:00,35.0,32.0,-100.00,ENE,64,3.0,4.0,86,0.00,,,-99.99,,2013-02-28 19:12:00,
2013-02-28 15:22:00,35.0,32.0,-100.00,NE,48,0.0,0.0,85,0.00,,,-99.99,,2013-02-28 20:22:00,
2013-02-28 15:32:00,36.0,32.0,-100.00,SE,128,5.0,10.0,85,0.00,,,-99.99,,2013-02-28 20:32:00,
2013-02-28 15:42:00,36.0,32.0,-100.00,East,94,6.0,10.0,85,0.00,,,-99.99,,2013-02-28 20:42:00,
2013-02-28 15:52:00,36.0,32.0,-100.00,East,88,5.0,10.0,85,0.00,,,-99.99,,2013-02-28 20:52:00,
2013-02-28 16:02:00,36.0,32.0,-100.00,East,80,4.0,10.0,84,0.00,,,-99.99,,2013-02-28 21:02:00,
2013-02-28 16:11:00,35.0,32.0,-100.00,East,88,4.0,10.0,84,0.00,,,-99.99,,2013-02-28 21:11:00,
2013-02-28 16:22:00,35.0,32.0,-100.00,ESE,121,5.0,10.0,84,0.00,,,-99.99,,2013-02-28 21:22:00,
2013-02-28 16:32:00,35.0,32.0,-100.00,South,177,4.0,10.0,84,0.00,,,-99.99,,2013-02-28 21:32:00,
2013-02-28 16:42:00,35.0,32.0,-100.00,ENE,76,4.0,10.0,85,0.00,,,-99.99,,2013-02-28 21:42:00,
2013-02-28 16:52:00,34.0,32.0,-100.00,SE,144,4.0,10.0,86,0.00,,,-99.99,,2013-02-28 21:52:00,
2013-02-28 17:02:00,35.0,32.0,-100.00,SE,129,2.0,10.0,86,0.00,,,-99.99,,2013-02-28 22:02:00,
2013-02-28 17:11:00,34.0,32.0,-100.00,NE,45,1.0,10.0,88,0.00,,,-99.99,,2013-02-28 22:11:00,
2013-02-28 17:22:00,34.0,32.0,-100.00,ESE,117,1.0,10.0,88,0.00,,,-99.99,,2013-02-28 22:22:00,
2013-02-28 17:32:00,35.0,32.0,-100.00,NE,36,3.0,10.0,88,0.00,,,-99.99,,2013-02-28 22:32:00,
2013-02-28 17:42:00,35.0,32.0,-100.00,ENE,63,5.0,10.0,88,0.00,,,-99.99,,2013-02-28 22:42:00,
2013-02-28 17:52:00,34.0,32.0,-100.00,ENE,66,2.0,10.0,88,0.00,,,-99.99,,2013-02-28 22:52:00,
2013-02-28 18:02:00,34.0,32.0,-100.00,SE,125,1.0,10.0,88,0.00,,,-99.99,,2013-02-28 23:02:00,
2013-02-28 18:11:00,35.0,32.0,-100.00,East,87,2.0,10.0,88,0.00,,,-99.99,,2013-02-28 23:11:00,
2013-02-28 18:22:00,34.0,32.0,-100.00,South,173,1.0,10.0,88,0.00,,,-99.99,,2013-02-28 23:22:00,
2013-02-28 18:32:00,34.0,32.0,-100.00,East,83,1.0,10.0,88,0.00,,,-99.99,,2013-02-28 23:32:00,
2013-02-28 18:42:00,34.0,32.0,-100.00,ESE,103,1.0,10.0,90,0.00,,,-99.99,,2013-02-28 23:42:00,
2013-02-28 18:52:00,34.0,32.0,-100.00,East,83,1.0,10.0,90,0.00,,,-99.99,,2013-02-28 23:52:00,
2013-02-28 19:02:00,34.0,32.0,-100.00,ENE,76,1.0,10.0,90,0.00,,,-99.99,,2013-03-01 00:02:00,
2013-02-28 19:11:00,34.0,32.0,-100.00,NNE,33,0.0,10.0,91,0.00,,,-99.99,,2013-03-01 00:11:00,
2013-02-28 19:22:00,33.0,32.0,-100.00,ENE,77,1.0,10.0,91,0.00,,,-99.99,,2013-03-01 00:22:00,
2013-02-28 19:32:00,33.0,32.0,-100.00,East,81,2.0,10.0,91,0.00,,,-99.99,,2013-03-01 00:32:00,
2013-02-28 19:42:00,33.0,32.0,-100.00,WNW,293,3.0,10.0,93,0.00,,,-99.99,,2013-03-01 00:42:00,
2013-02-28 19:51:00,33.0,32.0,-100.00,ENE,60,1.0,10.0,94,0.00,,,-99.99,,2013-03-01 00:51:00,
2013-02-28 20:01:00,33.0,32.0,-100.00,ENE,66,2.0,10.0,93,0.00,,,-99.99,,2013-03-01 01:01:00,
2013-02-28 20:11:00,33.0,32.0,-100.00,SE,138,1.0,10.0,93,0.00,,,-99.99,,2013-03-01 01:11:00,
2013-02-28 20:22:00,33.0,32.0,-100.00,East,83,3.0,10.0,91,0.00,,,-99.99,,2013-03-01 01:22:00,
2013-02-28 20:32:00,33.0,32.0,-100.00,ESE,105,5.0,10.0,91,0.00,,,-99.99,,2013-03-01 01:32:00,
2013-02-28 20:42:00,33.0,32.0,-100.00,SE,127,3.0,10.0,91,0.00,,,-99.99,,2013-03-01 01:42:00,
2013-02-28 20:52:00,33.0,32.0,-100.00,ESE,112,2.0,10.0,91,0.00,,,-99.99,,2013-03-01 01:52:00,
2013-02-28 21:01:00,33.0,32.0,-100.00,ESE,112,2.0,10.0,91,0.00,,,-99.99,,2013-03-01 02:01:00,
2013-02-28 21:11:00,32.0,30.0,-100.00,ESE,115,3.0,10.0,91,0.00,,,-99.99,,2013-03-01 02:11:00,
2013-02-28 21:22:00,33.0,32.0,-100.00,East,100,5.0,10.0,91,0.00,,,-99.99,,2013-03-01 02:22:00,
2013-02-28 21:32:00,33.0,32.0,-100.00,SE,139,6.0,10.0,90,0.00,,,-99.99,,2013-03-01 02:32:00,
2013-02-28 21:42:00,32.0,30.0,-100.00,SE,125,3.0,10.0,90,0.00,,,-99.99,,2013-03-01 02:42:00,
2013-02-28 21:52:00,32.0,30.0,-100.00,ESE,110,3.0,10.0,90,0.00,,,-99.99,,2013-03-01 02:52:00,
2013-02-28 22:02:00,32.0,30.0,-100.00,ESE,115,4.0,10.0,89,0.00,,,-99.99,,2013-03-01 03:02:00,
2013-02-28 22:12:00,32.0,30.0,-100.00,SE,127,4.0,10.0,89,0.00,,,-99.99,,2013-03-01 03:12:00,
2013-02-28 22:22:00,32.0,30.0,-100.00,SE,141,4.0,10.0,88,0.00,,,-99.99,,2013-03-01 03:22:00,
2013-02-28 22:32:00,32.0,30.0,-100.00,SE,131,5.0,10.0,88,0.00,,,-99.99,,2013-03-01 03:32:00,
2013-02-28 22:42:00,32.0,30.0,-100.00,SE,131,5.0,10.0,88,0.00,,,-99.99,,2013-03-01 03:42:00,
2013-02-28 22:52:00,32.0,30.0,-100.00,ENE,73,2.0,10.0,88,0.00,,,-99.99,,2013-03-01 03:52:00,
2013-02-28 23:02:00,32.0,30.0,-100.00,East,100,1.0,10.0,88,0.00,,,-99.99,,2013-03-01 04:02:00,
2013-02-28 23:12:00,32.0,30.0,-100.00,SE,129,1.0,10.0,88,0.00,,,-99.99,,2013-03-01 04:12:00,
2013-02-28 23:22:00,32.0,30.0,-100.00,East,79,1.0,10.0,88,0.00,,,-99.99,,2013-03-01 04:22:00,
2013-02-28 23:32:00,32.0,30.0,-100.00,East,86,2.0,10.0,88,0.00,,,-99.99,,2013-03-01 04:32:00,
2013-02-28 23:42:00,32.0,28.0,-100.00,ENE,70,2.0,10.0,86,0.00,,,-99.99,,2013-03-01 04:42:00,
2013-02-28 23:52:00,31.0,28.0,-100.00,South,170,4.0,10.0,85,0.00,,,-99.99,,2013-03-01 04:52:00,